TimeCDT,TemperatureF,Dew PointF,Humidity,Sea Level PressureIn,VisibilityMPH,Wind Direction,Wind SpeedMPH,Gust SpeedMPH,PrecipitationIn,Events,Conditions,WindDirDegrees,DateUTC
12:53 AM,53.1,48.9,86,29.84,10.0,SSE,4.6,-,N/A,,Clear,160,2013-04-07 05:53:00
1:53 AM,57.9,48.9,72,29.84,10.0,WSW,5.8,-,N/A,,Clear,250,2013-04-07 06:53:00
2:53 AM,50.0,46.9,89,29.85,10.0,Calm,Calm,-,N/A,,Clear,0,2013-04-07 07:53:00
3:53 AM,46.9,46.0,97,29.84,10.0,South,3.5,-,N/A,,Clear,180,2013-04-07 08:53:00
5:53 AM,45.0,44.1,97,29.84,10.0,Calm,Calm,-,N/A,,Clear,0,2013-04-07 10:53:00
6:53 AM,44.1,44.1,100,29.86,8.0,Calm,Calm,-,N/A,,Clear,0,2013-04-07 11:53:00
7:53 AM,46.9,46.0,97,29.87,10.0,Calm,Calm,-,N/A,,Clear,0,2013-04-07 12:53:00
8:53 AM,55.9,53.1,90,29.88,9.0,South,3.5,-,N/A,,Clear,180,2013-04-07 13:53:00
9:53 AM,62.1,55.9,80,29.87,10.0,SSE,5.8,-,N/A,,Clear,150,2013-04-07 14:53:00
10:53 AM,64.0,57.0,78,29.86,10.0,SSE,10.4,-,N/A,,Clear,150,2013-04-07 15:53:00
11:53 AM,69.1,57.9,68,29.85,10.0,SSE,15.0,-,N/A,,Scattered Clouds,160,2013-04-07 16:53:00
12:53 PM,70.0,59.0,68,29.82,10.0,SSE,16.1,-,N/A,,Mostly Cloudy,160,2013-04-07 17:53:00
1:16 PM,71.6,59.0,64,29.81,10.0,South,18.4,25.3,N/A,,Scattered Clouds,170,2013-04-07 18:16:00
1:53 PM,72.0,59.0,64,29.77,10.0,SSE,20.7,27.6,N/A,,Partly Cloudy,150,2013-04-07 18:53:00
2:12 PM,71.6,59.0,64,29.78,10.0,SSE,23.0,29.9,N/A,,Mostly Cloudy,160,2013-04-07 19:12:00
2:53 PM,68.0,57.9,70,29.75,10.0,South,19.6,28.8,N/A,,Overcast,180,2013-04-07 19:53:00
3:53 PM,68.0,57.9,70,29.73,10.0,South,16.1,26.5,N/A,,Overcast,180,2013-04-07 20:53:00
4:53 PM,66.0,57.9,75,29.71,10.0,South,19.6,29.9,N/A,,Overcast,170,2013-04-07 21:53:00
5:53 PM,64.9,57.9,78,29.72,10.0,South,17.3,27.6,N/A,,Overcast,180,2013-04-07 22:53:00
6:53 PM,63.0,59.0,87,29.73,6.0,South,12.7,19.6,N/A,,Overcast,180,2013-04-07 23:53:00
7:11 PM,62.6,60.8,94,29.74,2.5,South,9.2,-,0.00,,Overcast,180,2013-04-08 00:11:00
7:40 PM,60.8,60.8,100,29.74,1.8,South,6.9,-,0.01,Rain,Light Rain,180,2013-04-08 00:40:00
7:53 PM,61.0,61.0,100,29.73,1.8,South,4.6,-,0.01,Rain,Light Rain,180,2013-04-08 00:53:00
8:00 PM,60.8,60.8,100,29.74,2.5,South,5.8,-,0.00,Rain,Light Rain,170,2013-04-08 01:00:00
8:08 PM,60.8,60.8,100,29.74,4.0,South,5.8,-,0.00,,Overcast,170,2013-04-08 01:08:00
8:51 PM,60.8,60.8,100,29.74,5.0,SSE,8.1,-,0.01,,Overcast,160,2013-04-08 01:51:00
8:53 PM,61.0,61.0,100,29.73,6.0,SSE,6.9,-,0.01,,Overcast,160,2013-04-08 01:53:00
9:53 PM,62.1,60.1,93,29.73,10.0,SSE,4.6,-,N/A,,Overcast,160,2013-04-08 02:53:00
10:53 PM,62.1,59.0,90,29.73,10.0,South,5.8,-,N/A,,Overcast,170,2013-04-08 03:53:00
11:53 PM,62.1,59.0,90,29.72,10.0,South,9.2,-,N/A,,Mostly Cloudy,180,2013-04-08 04:53:00